,,Stat5,,Stat1,,Stat2,,Stat3,,Stat4,,Wind1,,Wind1,
time,status,PA1M_AVG,status,PR1M_SUM,status,RH1M_AVG,status,SR1M_AVG,status,TA1M_AVG,status,W1dAve1m,status,W1sAve1m,
2000-03-30, 00:00:00,VALID,917.749,VALID,0,VALID,100,VALID,-0.101885,VALID,19.1029,VALID,177,VALID,0,
2000-03-30, 00:01:01,VALID,917.737,VALID,0,VALID,100,VALID,-0.0679233,VALID,19.1026,VALID,176,VALID,0,
2000-03-30, 00:02:00,VALID,917.737,VALID,0,VALID,100,VALID,-0.101885,VALID,19.0999,VALID,176,VALID,0,
2000-03-30, 00:03:00,VALID,917.723,VALID,0,VALID,100,VALID,-0.101885,VALID,19.0994,VALID,176,VALID,0,
2000-03-30, 00:04:00,VALID,917.701,VALID,0,VALID,100,VALID,-0.0849042,VALID,19.0835,VALID,176,VALID,0,
2000-03-30, 00:05:00,VALID,917.687,VALID,0,VALID,100,VALID,-0.0509425,VALID,19.0609,VALID,176,VALID,0,
2000-03-30, 00:06:00,VALID,917.661,VALID,0,VALID,100,VALID,-0.0679233,VALID,19.0221,VALID,176,VALID,0,
2000-03-30, 00:07:01,VALID,917.646,VALID,0,VALID,100,VALID,-0.0679233,VALID,19.0154,VALID,176,VALID,0,
2000-03-30, 00:08:00,VALID,917.632,VALID,0,VALID,100,VALID,-0.101885,VALID,18.9931,VALID,172,VALID,0,
2000-03-30, 00:09:00,VALID,917.614,VALID,0,VALID,100,VALID,-0.0849042,VALID,19.0129,VALID,173,VALID,0,
2000-03-30, 00:10:00,VALID,917.608,VALID,0,VALID,100,VALID,-0.101885,VALID,19.0097,VALID,183,VALID,0,
2000-03-30, 00:11:00,VALID,917.611,VALID,0,VALID,100,VALID,-0.0849042,VALID,19.0321,VALID,194,VALID,0,
2000-03-30, 00:12:01,VALID,917.612,VALID,0,VALID,100,VALID,0.0169808,VALID,19.0602,VALID,203,VALID,0,
2000-03-30, 00:13:00,VALID,917.617,VALID,0,VALID,100,VALID,0.0169808,VALID,19.0493,VALID,199,VALID,0,
2000-03-30, 00:14:01,VALID,917.628,VALID,0,VALID,100,VALID,0.0339617,VALID,19.0754,VALID,199,VALID,0,
2000-03-30, 00:15:00,VALID,917.638,VALID,0,VALID,100,VALID,0,VALID,19.1081,VALID,190,VALID,0,
2000-03-30, 00:16:01,VALID,917.644,VALID,0,VALID,100,VALID,0,VALID,19.1273,VALID,192,VALID,0,
2000-03-30, 00:17:00,VALID,917.619,VALID,0,VALID,100,VALID,0,VALID,19.1531,VALID,195,VALID,0.58192,
2000-03-30, 00:18:00,VALID,917.589,VALID,0,VALID,100,VALID,0,VALID,19.1794,VALID,213,VALID,0.888775,
2000-03-30, 00:19:00,VALID,917.549,VALID,0,VALID,100,VALID,-0.0169808,VALID,19.1889,VALID,213,VALID,0.907197,
2000-03-30, 00:20:00,VALID,917.506,VALID,0,VALID,100,VALID,0,VALID,19.1924,VALID,200,VALID,1.00802,
2000-03-30, 00:21:00,VALID,917.478,VALID,0,VALID,100,VALID,0,VALID,19.202,VALID,212,VALID,0.859158,
2000-03-30, 00:22:00,VALID,917.452,VALID,0,VALID,100,VALID,0,VALID,19.218,VALID,199,VALID,0.842905,
2000-03-30, 00:23:00,VALID,917.424,VALID,0,VALID,100,VALID,-0.0169808,VALID,19.2348,VALID,207,VALID,1.0991,
2000-03-30, 00:24:00,VALID,917.416,VALID,0,VALID,100,VALID,0,VALID,19.2708,VALID,209,VALID,0.666233,
2000-03-30, 00:25:00,VALID,917.41,VALID,0,VALID,100,VALID,0,VALID,19.2699,VALID,192,VALID,0.831081,
2000-03-30, 00:26:00,VALID,917.409,VALID,0,VALID,100,VALID,0,VALID,19.2691,VALID,198,VALID,0.757595,
2000-03-30, 00:27:00,VALID,917.395,VALID,0,VALID,100,VALID,-0.0339617,VALID,19.283,VALID,211,VALID,0.86466,
2000-03-30, 00:28:01,VALID,917.385,VALID,0,VALID,100,VALID,0,VALID,19.2597,VALID,196,VALID,0.959293,
2000-03-30, 00:29:00,VALID,917.363,VALID,0,VALID,100,VALID,-0.0169808,VALID,19.2371,VALID,197,VALID,1.18951,
2000-03-30, 00:30:00,VALID,917.334,VALID,0,VALID,100,VALID,-0.0339617,VALID,19.2376,VALID,196,VALID,0.962023,
2000-03-30, 00:31:00,VALID,917.314,VALID,0,VALID,100,VALID,0,VALID,19.218,VALID,194,VALID,1.15308,
2000-03-30, 00:32:01,VALID,917.296,VALID,0,VALID,100,VALID,0,VALID,19.205,VALID,194,VALID,1.33778,
2000-03-30, 00:33:00,VALID,917.29,VALID,0,VALID,100,VALID,-0.0169808,VALID,19.2016,VALID,199,VALID,0.881373,
2000-03-30, 00:34:00,VALID,917.276,VALID,0,VALID,100,VALID,0.0339617,VALID,19.1919,VALID,206,VALID,0.667752,
2000-03-30, 00:35:00,VALID,917.254,VALID,0,VALID,100,VALID,-0.0169808,VALID,19.1824,VALID,212,VALID,0.704861,
2000-03-30, 00:36:00,VALID,917.235,VALID,0,VALID,100,VALID,0,VALID,19.1824,VALID,211,VALID,0.880279,
2000-03-30, 00:37:01,VALID,917.231,VALID,0,VALID,100,VALID,0,VALID,19.1951,VALID,213,VALID,0.949449,
2000-03-30, 00:38:00,VALID,917.225,VALID,0,VALID,100,VALID,-0.0169808,VALID,19.2152,VALID,218,VALID,1.24404,
2000-03-30, 00:39:00,VALID,917.202,VALID,0,VALID,100,VALID,0,VALID,19.2249,VALID,210,VALID,1.1365,
2000-03-30, 00:40:00,VALID,917.19,VALID,0,VALID,100,VALID,0,VALID,19.2177,VALID,211,VALID,1.3559,
2000-03-30, 00:41:01,VALID,917.163,VALID,0,VALID,100,VALID,0,VALID,19.2346,VALID,207,VALID,0.834882,
2000-03-30, 00:42:01,VALID,917.149,VALID,0,VALID,100,VALID,0,VALID,19.2078,VALID,199,VALID,1.07445,
2000-03-30, 00:43:00,VALID,917.102,VALID,0,VALID,100,VALID,0.0169808,VALID,19.2115,VALID,205,VALID,1.18873,
2000-03-30, 00:44:01,VALID,917.082,VALID,0,VALID,100,VALID,0,VALID,19.1981,VALID,191,VALID,0.837023,
2000-03-30, 00:45:01,VALID,917.058,VALID,0,VALID,100,VALID,0,VALID,19.2088,VALID,201,VALID,0.594835,
2000-03-30, 00:46:01,VALID,917.046,VALID,0,VALID,100,VALID,0,VALID,19.1991,VALID,210,VALID,0.84924,
2000-03-30, 00:47:01,VALID,917.023,VALID,0,VALID,100,VALID,0,VALID,19.1824,VALID,203,VALID,0.71852,
2000-03-30, 00:48:00,VALID,916.997,VALID,0,VALID,100,VALID,0.0169808,VALID,19.1757,VALID,205,VALID,0.229646,
2000-03-30, 00:49:01,VALID,916.995,VALID,0,VALID,100,VALID,0.0169808,VALID,19.176,VALID,216,VALID,0.547092,
2000-03-30, 00:50:00,VALID,916.983,VALID,0,VALID,100,VALID,0.0339617,VALID,19.1672,VALID,214,VALID,0.555339,
2000-03-30, 00:51:01,VALID,916.977,VALID,0,VALID,100,VALID,-0.0339617,VALID,19.1446,VALID,223,VALID,0.4375,
2000-03-30, 00:52:01,VALID,916.95,VALID,0,VALID,100,VALID,-0.0339617,VALID,19.1354,VALID,214,VALID,0.116728,
2000-03-30, 00:53:01,VALID,916.934,VALID,0,VALID,100,VALID,-0.0509425,VALID,19.123,VALID,205,VALID,0.00102796,
2000-03-30, 00:54:00,VALID,916.904,VALID,0,VALID,100,VALID,-0.0169808,VALID,19.1093,VALID,211,VALID,0,
2000-03-30, 00:55:01,VALID,916.888,VALID,0,VALID,100,VALID,-0.0509425,VALID,19.0969,VALID,210,VALID,0,
2000-03-30, 00:56:01,VALID,916.862,VALID,0,VALID,100,VALID,-0.0339617,VALID,19.0773,VALID,223,VALID,0,
2000-03-30, 00:57:01,VALID,916.84,VALID,0,VALID,100,VALID,-0.0339617,VALID,19.0711,VALID,237,VALID,0,
2000-03-30, 00:58:01,VALID,916.824,VALID,0,VALID,100,VALID,-0.0509425,VALID,19.0646,VALID,235,VALID,0,
2000-03-30, 00:59:01,VALID,916.799,VALID,0,VALID,100,VALID,-0.0679233,VALID,19.0614,VALID,234,VALID,0,
2000-03-30, 01:00:01,VALID,916.792,VALID,0,VALID,100,VALID,-0.101885,VALID,19.0422,VALID,220,VALID,0,
2000-03-30, 01:01:01,VALID,916.776,VALID,0,VALID,100,VALID,-0.0339617,VALID,19.0164,VALID,212,VALID,0,
2000-03-30, 01:02:01,VALID,916.766,VALID,0,VALID,100,VALID,-0.0339617,VALID,18.9806,VALID,213,VALID,0,
2000-03-30, 01:03:01,VALID,916.764,VALID,0,VALID,100,VALID,-0.0339617,VALID,18.9285,VALID,212,VALID,0,
2000-03-30, 01:04:01,VALID,916.749,VALID,0,VALID,100,VALID,-0.0849042,VALID,18.9029,VALID,211,VALID,0,
2000-03-30, 01:05:01,VALID,916.747,VALID,0,VALID,100,VALID,-0.0679233,VALID,18.8867,VALID,212,VALID,0,
2000-03-30, 01:06:01,VALID,916.752,VALID,0,VALID,100,VALID,0.0169808,VALID,18.8629,VALID,239,VALID,0.0758024,
2000-03-30, 01:07:01,VALID,916.764,VALID,0,VALID,100,VALID,0.0339617,VALID,18.8694,VALID,239,VALID,0.476563,
2000-03-30, 01:08:01,VALID,916.782,VALID,0,VALID,100,VALID,0.0509425,VALID,18.8759,VALID,236,VALID,0.363281,
2000-03-30, 01:09:01,VALID,916.785,VALID,0,VALID,100,VALID,0.0679233,VALID,18.8888,VALID,236,VALID,0.412109,
2000-03-30, 01:10:01,VALID,916.779,VALID,0,VALID,100,VALID,0.0509425,VALID,18.9148,VALID,236,VALID,0.0407986,
2000-03-30, 01:11:01,VALID,916.762,VALID,0,VALID,100,VALID,0.0509425,VALID,18.9278,VALID,232,VALID,0.10114,
2000-03-30, 01:12:01,VALID,916.737,VALID,0,VALID,100,VALID,0.0169808,VALID,18.9471,VALID,210,VALID,0.103631,
2000-03-30, 01:13:01,VALID,916.714,VALID,0,VALID,100,VALID,0.0169808,VALID,18.9668,VALID,200,VALID,0,
2000-03-30, 01:14:01,VALID,916.687,VALID,0,VALID,100,VALID,0.0169808,VALID,18.9864,VALID,187,VALID,0.237196,
2000-03-30, 01:15:00,VALID,916.684,VALID,0,VALID,100,VALID,0.0339617,VALID,18.9951,VALID,179,VALID,0.406467,
2000-03-30, 01:16:00,VALID,916.661,VALID,0,VALID,100,VALID,0.0509425,VALID,19.0087,VALID,180,VALID,0.455236,
2000-03-30, 01:17:00,VALID,916.651,VALID,0,VALID,100,VALID,0.0849042,VALID,18.9827,VALID,198,VALID,0.433594,
2000-03-30, 01:18:00,VALID,916.636,VALID,0,VALID,100,VALID,0.0849042,VALID,18.969,VALID,184,VALID,1.09457,
2000-03-30, 01:19:00,VALID,916.63,VALID,0,VALID,100,VALID,0.0679233,VALID,18.979,VALID,154,VALID,0.992405,
2000-03-30, 01:20:00,VALID,916.612,VALID,0,VALID,100,VALID,0.0339617,VALID,18.9566,VALID,159,VALID,0.832031,
2000-03-30, 01:21:00,VALID,916.601,VALID,0,VALID,100,VALID,-0.0509425,VALID,18.9123,VALID,138,VALID,0.998522,
2000-03-30, 01:22:00,VALID,916.593,VALID,0,VALID,100,VALID,-0.0509425,VALID,18.8964,VALID,151,VALID,0.875,
2000-03-30, 01:23:00,VALID,916.59,VALID,0,VALID,100,VALID,-0.0339617,VALID,18.8741,VALID,143,VALID,1.14638,
2000-03-30, 01:24:00,VALID,916.581,VALID,0,VALID,100,VALID,-0.0169808,VALID,18.8778,VALID,151,VALID,1.0714,
2000-03-30, 01:25:00,VALID,916.577,VALID,0,VALID,100,VALID,-0.0849042,VALID,18.8941,VALID,146,VALID,1.20378,
2000-03-30, 01:26:00,VALID,916.581,VALID,0,VALID,100,VALID,-0.0509425,VALID,18.8641,VALID,149,VALID,1.08171,
2000-03-30, 01:27:00,VALID,916.581,VALID,0,VALID,100,VALID,-0.0679233,VALID,18.8586,VALID,150,VALID,1.30699,
2000-03-30, 01:28:00,VALID,916.585,VALID,0,VALID,100,VALID,-0.0679233,VALID,18.845,VALID,146,VALID,1.44922,
2000-03-30, 01:29:00,VALID,916.588,VALID,0,VALID,100,VALID,-0.0849042,VALID,18.8221,VALID,132,VALID,1.17839,
2000-03-30, 01:30:00,VALID,916.603,VALID,0,VALID,100,VALID,-0.0509425,VALID,18.8226,VALID,114,VALID,0.879991,
2000-03-30, 01:31:00,VALID,916.623,VALID,0,VALID,100,VALID,0,VALID,18.8125,VALID,106,VALID,0.866343,
2000-03-30, 01:32:00,VALID,916.649,VALID,0,VALID,100,VALID,0,VALID,18.8159,VALID,124,VALID,0.66659,
2000-03-30, 01:33:00,VALID,916.661,VALID,0,VALID,100,VALID,-0.0509425,VALID,18.8125,VALID,144,VALID,0.567434,
2000-03-30, 01:34:00,VALID,916.663,VALID,0,VALID,100,VALID,-0.0169808,VALID,18.8226,VALID,144,VALID,0.0351563,
2000-03-30, 01:35:00,VALID,916.67,VALID,0,VALID,100,VALID,-0.101885,VALID,18.8127,VALID,121,VALID,0,
2000-03-30, 01:36:00,VALID,916.662,VALID,0,VALID,100,VALID,-0.0849042,VALID,18.8136,VALID,120,VALID,0,
2000-03-30, 01:37:00,VALID,916.646,VALID,0,VALID,100,VALID,-0.0679233,VALID,18.7806,VALID,109,VALID,0,
2000-03-30, 01:38:00,VALID,916.642,VALID,0,VALID,100,VALID,-0.101885,VALID,18.765,VALID,77,VALID,0,
2000-03-30, 01:39:00,VALID,916.636,VALID,0,VALID,100,VALID,-0.0679233,VALID,18.7324,VALID,88,VALID,0,
2000-03-30, 01:40:00,VALID,916.646,VALID,0,VALID,100,VALID,-0.0679233,VALID,18.7031,VALID,88,VALID,0,
2000-03-30, 01:41:00,VALID,916.627,VALID,0,VALID,100,VALID,-0.0509425,VALID,18.6939,VALID,88,VALID,0,
2000-03-30, 01:42:00,VALID,916.616,VALID,0,VALID,100,VALID,-0.0169808,VALID,18.6805,VALID,88,VALID,0,
2000-03-30, 01:43:00,VALID,916.613,VALID,0,VALID,100,VALID,-0.0339617,VALID,18.6775,VALID,88,VALID,0,
2000-03-30, 01:44:00,VALID,916.607,VALID,0,VALID,100,VALID,-0.0679233,VALID,18.6611,VALID,73,VALID,0.175998,
2000-03-30, 01:45:00,VALID,916.611,VALID,0,VALID,100,VALID,-0.0509425,VALID,18.6621,VALID,50,VALID,0.501953,
2000-03-30, 01:46:00,VALID,916.594,VALID,0,VALID,100,VALID,-0.0679233,VALID,18.6644,VALID,30,VALID,0.372889,
2000-03-30, 01:47:00,VALID,916.59,VALID,0,VALID,100,VALID,-0.0679233,VALID,18.6842,VALID,37,VALID,0.0689338,
2000-03-30, 01:48:00,VALID,916.573,VALID,0,VALID,100,VALID,-0.0169808,VALID,18.6967,VALID,73,VALID,0,
2000-03-30, 01:49:00,VALID,916.564,VALID,0,VALID,100,VALID,-0.0679233,VALID,18.7227,VALID,99,VALID,0,
2000-03-30, 01:50:00,VALID,916.55,VALID,0,VALID,100,VALID,-0.0849042,VALID,18.7384,VALID,102,VALID,0,
2000-03-30, 01:51:00,VALID,916.528,VALID,0,VALID,100,VALID,0.0679233,VALID,18.7338,VALID,106,VALID,0,
2000-03-30, 01:52:00,VALID,916.507,VALID,0,VALID,100,VALID,0.0849042,VALID,18.7564,VALID,108,VALID,0,
2000-03-30, 01:53:00,VALID,916.503,VALID,0,VALID,100,VALID,0.0679233,VALID,18.7723,VALID,108,VALID,0,
2000-03-30, 01:54:00,VALID,916.486,VALID,0,VALID,100,VALID,0.101885,VALID,18.7956,VALID,108,VALID,0,
2000-03-30, 01:55:00,VALID,916.488,VALID,0,VALID,100,VALID,0.0849042,VALID,18.812,VALID,108,VALID,0,
2000-03-30, 01:56:00,VALID,916.499,VALID,0,VALID,100,VALID,0.0509425,VALID,18.8177,VALID,102,VALID,0,
2000-03-30, 01:57:00,VALID,916.508,VALID,0,VALID,100,VALID,0.0679233,VALID,18.8304,VALID,98,VALID,0,
2000-03-30, 01:58:00,VALID,916.505,VALID,0,VALID,100,VALID,0.0339617,VALID,18.847,VALID,98,VALID,0,
2000-03-30, 01:59:00,VALID,916.52,VALID,0,VALID,100,VALID,0.0679233,VALID,18.8503,VALID,96,VALID,0,
2000-03-30, 02:00:00,VALID,916.528,VALID,0,VALID,100,VALID,0.0339617,VALID,18.8634,VALID,95,VALID,0,
2000-03-30, 02:01:00,VALID,916.528,VALID,0,VALID,100,VALID,0.0339617,VALID,18.8599,VALID,93,VALID,0,
2000-03-30, 02:02:00,VALID,916.531,VALID,0,VALID,100,VALID,0.0679233,VALID,18.8696,VALID,94,VALID,0,
2000-03-30, 02:03:00,VALID,916.528,VALID,0,VALID,100,VALID,0.118866,VALID,18.8793,VALID,94,VALID,0,
2000-03-30, 02:04:00,VALID,916.511,VALID,0,VALID,100,VALID,0.0679233,VALID,18.8957,VALID,94,VALID,0,
2000-03-30, 02:05:00,VALID,916.512,VALID,0,VALID,100,VALID,0.0849042,VALID,18.9052,VALID,94,VALID,0,
2000-03-30, 02:06:00,VALID,916.504,VALID,0,VALID,100,VALID,-0.0339617,VALID,18.9061,VALID,94,VALID,0,
2000-03-30, 02:07:00,VALID,916.498,VALID,0,VALID,100,VALID,-0.0169808,VALID,18.9098,VALID,96,VALID,0,
2000-03-30, 02:08:00,VALID,916.488,VALID,0,VALID,100,VALID,0,VALID,18.9128,VALID,101,VALID,0,
2000-03-30, 02:09:00,VALID,916.473,VALID,0,VALID,100,VALID,-0.0339617,VALID,18.9089,VALID,96,VALID,0,
2000-03-30, 02:10:00,VALID,916.449,VALID,0,VALID,100,VALID,-0.0169808,VALID,18.9287,VALID,124,VALID,0,
2000-03-30, 02:11:00,VALID,916.429,VALID,0,VALID,100,VALID,-0.0509425,VALID,18.9262,VALID,149,VALID,0,
2000-03-30, 02:12:00,VALID,916.416,VALID,0,VALID,100,VALID,-0.0339617,VALID,18.9063,VALID,170,VALID,0,
2000-03-30, 02:13:00,VALID,916.392,VALID,0,VALID,100,VALID,0,VALID,18.887,VALID,194,VALID,0,
2000-03-30, 02:14:00,VALID,916.386,VALID,0,VALID,100,VALID,-0.0169808,VALID,18.8733,VALID,195,VALID,0,
2000-03-30, 02:15:00,VALID,916.396,VALID,0,VALID,100,VALID,-0.0339617,VALID,18.8741,VALID,195,VALID,0,
2000-03-30, 02:16:00,VALID,916.404,VALID,0,VALID,100,VALID,-0.0339617,VALID,18.8611,VALID,195,VALID,0,
2000-03-30, 02:17:00,VALID,916.417,VALID,0,VALID,100,VALID,-0.0169808,VALID,18.8674,VALID,195,VALID,0,
2000-03-30, 02:18:00,VALID,916.424,VALID,0,VALID,100,VALID,-0.0169808,VALID,18.8932,VALID,195,VALID,0,
2000-03-30, 02:19:00,VALID,916.445,VALID,0,VALID,100,VALID,0,VALID,18.8865,VALID,194,VALID,0,
2000-03-30, 02:20:00,VALID,916.438,VALID,0,VALID,100,VALID,0.0169808,VALID,18.8803,VALID,194,VALID,0,
2000-03-30, 02:21:00,VALID,916.446,VALID,0,VALID,100,VALID,0.101885,VALID,18.8692,VALID,194,VALID,0,
2000-03-30, 02:22:00,VALID,916.448,VALID,0,VALID,100,VALID,0.0509425,VALID,18.8627,VALID,194,VALID,0,
2000-03-30, 02:23:00,VALID,916.454,VALID,0,VALID,100,VALID,0.101885,VALID,18.8428,VALID,195,VALID,0,
2000-03-30, 02:24:00,VALID,916.464,VALID,0,VALID,100,VALID,0.0509425,VALID,18.8468,VALID,203,VALID,0,
2000-03-30, 02:25:00,VALID,916.456,VALID,0,VALID,100,VALID,0.0849042,VALID,18.8503,VALID,203,VALID,0,
2000-03-30, 02:26:00,VALID,916.47,VALID,0,VALID,100,VALID,0.0679233,VALID,18.8599,VALID,215,VALID,0,
2000-03-30, 02:27:00,VALID,916.481,VALID,0,VALID,100,VALID,0.0679233,VALID,18.8597,VALID,214,VALID,0,
2000-03-30, 02:28:00,VALID,916.481,VALID,0,VALID,100,VALID,0.0679233,VALID,18.8533,VALID,231,VALID,0,
2000-03-30, 02:29:00,VALID,916.495,VALID,0,VALID,100,VALID,0.0849042,VALID,18.853,VALID,233,VALID,0,
2000-03-30, 02:30:00,VALID,916.493,VALID,0,VALID,100,VALID,0.0509425,VALID,18.8535,VALID,232,VALID,0,
2000-03-30, 02:31:00,VALID,916.488,VALID,0,VALID,100,VALID,0.0339617,VALID,18.85,VALID,232,VALID,0,
2000-03-30, 02:32:00,VALID,916.483,VALID,0,VALID,100,VALID,0.0509425,VALID,18.8468,VALID,232,VALID,0,
2000-03-30, 02:33:00,VALID,916.461,VALID,0,VALID,100,VALID,0.0339617,VALID,18.8535,VALID,232,VALID,0,
2000-03-30, 02:34:00,VALID,916.43,VALID,0,VALID,100,VALID,0.0509425,VALID,18.8503,VALID,232,VALID,0,
2000-03-30, 02:35:00,VALID,916.42,VALID,0,VALID,100,VALID,0.0679233,VALID,18.8634,VALID,232,VALID,0,
2000-03-30, 02:36:00,VALID,916.384,VALID,0,VALID,100,VALID,-0.0339617,VALID,18.8805,VALID,258,VALID,0,
2000-03-30, 02:37:00,VALID,916.37,VALID,0,VALID,100,VALID,-0.0509425,VALID,18.8805,VALID,290,VALID,0,
2000-03-30, 02:38:00,VALID,916.383,VALID,0,VALID,100,VALID,-0.0509425,VALID,18.8872,VALID,298,VALID,0,
2000-03-30, 02:39:00,VALID,916.379,VALID,0,VALID,100,VALID,-0.0169808,VALID,18.8835,VALID,295,VALID,0,
2000-03-30, 02:40:00,VALID,916.373,VALID,0,VALID,100,VALID,-0.0339617,VALID,18.9063,VALID,276,VALID,0,
2000-03-30, 02:41:00,VALID,916.372,VALID,0,VALID,100,VALID,-0.0339617,VALID,18.913,VALID,261,VALID,0,
2000-03-30, 02:42:00,VALID,916.376,VALID,0,VALID,100,VALID,0,VALID,18.9024,VALID,263,VALID,0,
2000-03-30, 02:43:00,VALID,916.38,VALID,0,VALID,100,VALID,-0.0509425,VALID,18.8939,VALID,270,VALID,0,
2000-03-30, 02:44:00,VALID,916.37,VALID,0,VALID,100,VALID,-0.0339617,VALID,18.8937,VALID,267,VALID,0,
2000-03-30, 02:45:00,VALID,916.36,VALID,0,VALID,100,VALID,-0.0509425,VALID,18.8971,VALID,249,VALID,0,
2000-03-30, 02:46:00,VALID,916.351,VALID,0,VALID,100,VALID,-0.0679233,VALID,18.9036,VALID,262,VALID,0,
2000-03-30, 02:47:00,VALID,916.342,VALID,0,VALID,100,VALID,-0.0679233,VALID,18.8969,VALID,262,VALID,0,
2000-03-30, 02:48:00,VALID,916.35,VALID,0,VALID,100,VALID,-0.0509425,VALID,18.8835,VALID,244,VALID,0,
2000-03-30, 02:49:00,VALID,916.354,VALID,0,VALID,100,VALID,-0.0339617,VALID,18.9034,VALID,240,VALID,0,
2000-03-30, 02:50:00,VALID,916.35,VALID,0,VALID,100,VALID,-0.0339617,VALID,18.8964,VALID,240,VALID,0,
2000-03-30, 02:51:00,VALID,916.338,VALID,0,VALID,100,VALID,0,VALID,18.9024,VALID,224,VALID,0,
2000-03-30, 02:52:00,VALID,916.335,VALID,0,VALID,100,VALID,-0.0339617,VALID,18.8997,VALID,217,VALID,0,
2000-03-30, 02:53:00,VALID,916.325,VALID,0,VALID,100,VALID,-0.0339617,VALID,18.893,VALID,209,VALID,0,
2000-03-30, 02:54:00,VALID,916.307,VALID,0,VALID,100,VALID,-0.0169808,VALID,18.8865,VALID,196,VALID,0,
2000-03-30, 02:55:00,VALID,916.277,VALID,0,VALID,100,VALID,-0.0169808,VALID,18.8736,VALID,193,VALID,0,
2000-03-30, 02:56:00,VALID,916.271,VALID,0,VALID,100,VALID,-0.0169808,VALID,18.851,VALID,174,VALID,0,
2000-03-30, 02:57:00,VALID,916.255,VALID,0,VALID,100,VALID,-0.0339617,VALID,18.8678,VALID,160,VALID,0,
2000-03-30, 02:58:00,VALID,916.261,VALID,0,VALID,100,VALID,-0.0339617,VALID,18.8413,VALID,155,VALID,0,
2000-03-30, 02:59:00,VALID,916.257,VALID,0,VALID,100,VALID,-0.0169808,VALID,18.8318,VALID,154,VALID,0,
2000-03-30, 03:00:00,VALID,916.265,VALID,0,VALID,100,VALID,-0.0169808,VALID,18.8117,VALID,163,VALID,0,
2000-03-30, 03:01:00,VALID,916.253,VALID,0,VALID,100,VALID,-0.0339617,VALID,18.7995,VALID,172,VALID,0,
2000-03-30, 03:02:00,VALID,916.256,VALID,0,VALID,100,VALID,0,VALID,18.7735,VALID,175,VALID,0,
2000-03-30, 03:03:00,VALID,916.256,VALID,0,VALID,100,VALID,0,VALID,18.7608,VALID,189,VALID,0,
2000-03-30, 03:04:00,VALID,916.236,VALID,0,VALID,100,VALID,-0.0339617,VALID,18.7506,VALID,195,VALID,0.29145,
2000-03-30, 03:05:00,VALID,916.215,VALID,0,VALID,100,VALID,-0.0169808,VALID,18.7444,VALID,197,VALID,0.931858,
2000-03-30, 03:06:00,VALID,916.199,VALID,0,VALID,100,VALID,-0.0679233,VALID,18.7352,VALID,194,VALID,0.969172,
2000-03-30, 03:07:00,VALID,916.194,VALID,0,VALID,100,VALID,-0.0849042,VALID,18.7324,VALID,187,VALID,1.054,
2000-03-30, 03:08:00,VALID,916.182,VALID,0,VALID,100,VALID,-0.0339617,VALID,18.6994,VALID,164,VALID,0.76028,
2000-03-30, 03:09:00,VALID,916.182,VALID,0,VALID,100,VALID,-0.0339617,VALID,18.6807,VALID,155,VALID,0.935981,
2000-03-30, 03:10:00,VALID,916.187,VALID,0,VALID,100,VALID,-0.0849042,VALID,18.644,VALID,161,VALID,1.03168,
2000-03-30, 03:11:00,VALID,916.2,VALID,0,VALID,100,VALID,-0.0169808,VALID,18.6316,VALID,161,VALID,0.982475,
2000-03-30, 03:12:00,VALID,916.195,VALID,0,VALID,100,VALID,-0.0509425,VALID,18.648,VALID,166,VALID,1.1296,
2000-03-30, 03:13:00,VALID,916.187,VALID,0,VALID,100,VALID,-0.0339617,VALID,18.6477,VALID,160,VALID,1.08409,
2000-03-30, 03:14:00,VALID,916.18,VALID,0,VALID,100,VALID,-0.0169808,VALID,18.6577,VALID,168,VALID,1.0638,
2000-03-30, 03:15:00,VALID,916.159,VALID,0,VALID,100,VALID,-0.0169808,VALID,18.6408,VALID,165,VALID,0.820747,
2000-03-30, 03:16:00,VALID,916.16,VALID,0,VALID,100,VALID,-0.0679233,VALID,18.648,VALID,165,VALID,0.974451,
2000-03-30, 03:17:00,VALID,916.159,VALID,0,VALID,100,VALID,-0.0339617,VALID,18.6512,VALID,170,VALID,0.6983,
2000-03-30, 03:18:00,VALID,916.173,VALID,0,VALID,100,VALID,-0.0169808,VALID,18.645,VALID,169,VALID,0.464638,
2000-03-30, 03:19:00,VALID,916.179,VALID,0,VALID,100,VALID,-0.0339617,VALID,18.6408,VALID,159,VALID,0.661675,
2000-03-30, 03:20:00,VALID,916.182,VALID,0,VALID,100,VALID,-0.0169808,VALID,18.6316,VALID,167,VALID,0.913628,
2000-03-30, 03:21:00,VALID,916.184,VALID,0,VALID,100,VALID,-0.0169808,VALID,18.6249,VALID,161,VALID,1.17504,
2000-03-30, 03:22:00,VALID,916.181,VALID,0,VALID,100,VALID,0,VALID,18.6125,VALID,171,VALID,0.89545,
2000-03-30, 03:23:00,VALID,916.163,VALID,0,VALID,100,VALID,-0.0169808,VALID,18.5891,VALID,178,VALID,0.770148,
2000-03-30, 03:24:00,VALID,916.143,VALID,0,VALID,100,VALID,0,VALID,18.5799,VALID,192,VALID,1.14627,
2000-03-30, 03:25:00,VALID,916.12,VALID,0,VALID,100,VALID,-0.0339617,VALID,18.5737,VALID,193,VALID,0.951606,
2000-03-30, 03:26:00,VALID,916.086,VALID,0,VALID,100,VALID,-0.0169808,VALID,18.5573,VALID,196,VALID,0.889569,
2000-03-30, 03:27:00,VALID,916.081,VALID,0,VALID,100,VALID,-0.0169808,VALID,18.5444,VALID,204,VALID,0.67693,
2000-03-30, 03:28:00,VALID,916.064,VALID,0,VALID,100,VALID,-0.0509425,VALID,18.5377,VALID,205,VALID,0.557155,
2000-03-30, 03:29:00,VALID,916.06,VALID,0,VALID,100,VALID,0,VALID,18.528,VALID,205,VALID,0.80447,
2000-03-30, 03:30:00,VALID,916.062,VALID,0,VALID,100,VALID,-0.0339617,VALID,18.5283,VALID,218,VALID,0.911675,
2000-03-30, 03:31:00,VALID,916.065,VALID,0,VALID,100,VALID,-0.0509425,VALID,18.5479,VALID,218,VALID,0.933699,
2000-03-30, 03:32:00,VALID,916.079,VALID,0,VALID,100,VALID,-0.0509425,VALID,18.5513,VALID,228,VALID,0.87454,
2000-03-30, 03:33:00,VALID,916.089,VALID,0,VALID,100,VALID,-0.0679233,VALID,18.5481,VALID,218,VALID,1.01563,
2000-03-30, 03:34:00,VALID,916.089,VALID,0,VALID,100,VALID,0,VALID,18.5672,VALID,225,VALID,0.875,
2000-03-30, 03:35:00,VALID,916.094,VALID,0,VALID,100,VALID,-0.0339617,VALID,18.5871,VALID,216,VALID,0.832682,
2000-03-30, 03:36:00,VALID,916.086,VALID,0,VALID,100,VALID,-0.0339617,VALID,18.5739,VALID,220,VALID,0.649071,
2000-03-30, 03:37:00,VALID,916.078,VALID,0,VALID,100,VALID,-0.0509425,VALID,18.5513,VALID,226,VALID,0.761949,
2000-03-30, 03:38:00,VALID,916.077,VALID,0,VALID,100,VALID,-0.0509425,VALID,18.5481,VALID,235,VALID,0.921464,
2000-03-30, 03:39:00,VALID,916.065,VALID,0,VALID,100,VALID,-0.0339617,VALID,18.5442,VALID,229,VALID,1.0204,
2000-03-30, 03:40:00,VALID,916.061,VALID,0,VALID,100,VALID,0,VALID,18.5543,VALID,234,VALID,0.797092,
2000-03-30, 03:41:00,VALID,916.049,VALID,0,VALID,100,VALID,-0.0339617,VALID,18.5476,VALID,232,VALID,0.606208,
2000-03-30, 03:42:00,VALID,916.04,VALID,0,VALID,100,VALID,-0.0339617,VALID,18.5414,VALID,213,VALID,0.476103,
2000-03-30, 03:43:00,VALID,916.037,VALID,0,VALID,100,VALID,-0.0339617,VALID,18.5292,VALID,204,VALID,0.298109,
2000-03-30, 03:44:00,VALID,916.036,VALID,0,VALID,100,VALID,-0.0849042,VALID,18.4934,VALID,203,VALID,0.046224,
2000-03-30, 03:45:00,VALID,916.035,VALID,0,VALID,100,VALID,0,VALID,18.4738,VALID,203,VALID,0,